Regional Weather Roundup
Issued by NWS

Home | Current Version | Previous Version | Text Only | Print | Product List | Glossary On
Versions: 1 2 3 4 5 6 7 8 9 10 11 12 13 14 15 16 17 18 19 20 21 22 23 24 25 26 27 28 29 30 31 32 33 34 35 36 37 38 39 40 41 42 43 44 45 46 47 48 49 50
267
ASCA44 KEWX 010520
RWRMX

LATIN AMERICA AND CARIBBEAN REGIONAL WEATHER ROUNDUP
NATIONAL WEATHER SERVICE AUSTIN/SAN ANTONIO TX
1200 AM CDT SUN MAY 01 2016

NOTE: "FAIR" INDICATED FEW OR NO CLOUDS BELOW 12,000 FEET WITH NO
SIGNIFICANT WEATHER AND/OR OBSTRUCTIONS TO VISIBILITY.

BAJA CALIFORNIA

CITY           SKY/WX    TMP DP  RH WIND       PRES   REMARKS
LA PAZ         CLEAR     64  52  63 S9        29.90R
MEXICALI       PTCLDY    70  45  40 NW8       29.73R
S.J. DEL CABO  PTCLDY    70  52  52 NW6       29.84S
TIJUANA        MOCLDY    59  48  67 CALM      29.89S

NORTHWESTERN MEXICO

CITY           SKY/WX    TMP DP  RH WIND       PRES   REMARKS
CULIACAN         N/A    N/A N/A N/A MISG        N/A
HERMOSILLO     CLEAR     72  59  64 CALM      29.80R
LOS MOCHIS       N/A    N/A N/A N/A MISG        N/A

NORTHEASTERN MEXICO

CITY           SKY/WX    TMP DP  RH WIND       PRES   REMARKS
MONCLOVA         N/A    N/A N/A N/A MISG        N/A
MONTERREY      CLEAR     77  37  24 S5        29.75S
REYNOSA          N/A    N/A N/A N/A MISG        N/A
SALTILLO       CLEAR     68  43  40 NE7       29.98S
CD. VICTORIA     N/A    N/A N/A N/A MISG        N/A

WESTERN MEXICO

CITY           SKY/WX    TMP DP  RH WIND       PRES   REMARKS
AGUASCALIENTES PTCLDY    63   7  11 SW2       30.12R
COLIMA           N/A    N/A N/A N/A MISG        N/A
DEL BAJIO      PTCLDY    61  16  17 NE6       30.17R
GUADALAJARA    MOCLDY    68  25  19 W5        30.07R
MAZATLAN       MOCLDY    68  64  88 CALM      29.86R
P. VALLARTA    CLOUDY    77  68  73 S3        29.85F
URUAPAN          N/A    N/A N/A N/A MISG        N/A
ZACATECAS      CLEAR     63  16  16 SW15      30.14

CENTRAL MEXICO

CITY           SKY/WX    TMP DP  RH WIND       PRES   REMARKS
CUERNAVACA       N/A    N/A N/A N/A MISG        N/A
MEXICO CITY    CLEAR     68  32  26 S3        30.23R
MORELIA        CLEAR     63  21  20 SW9       30.15R
POZA RICA        N/A    N/A N/A N/A MISG        N/A
QUERETARO      PTCLDY    66  27  22 NW8       30.18R
S. LUIS POTOSI CLEAR     64   9  11 SE7       30.06S
TAMPICO          N/A    N/A N/A N/A MISG        N/A
TOLUCA         PTCLDY    55  27  33 N3        30.34R

SOUTHERN MEXICO

CITY           SKY/WX    TMP DP  RH WIND       PRES   REMARKS
ACAPULCO       PTCLDY    75  72  88 W6        29.84R
B. DE HUATULCO   N/A    N/A N/A N/A MISG        N/A
P. ESCONDIDO     N/A    N/A N/A N/A MISG        N/A
VERACRUZ       MOCLDY    79  75  89 CALM      29.73R

YUCATAN PENINSULA

CITY           SKY/WX    TMP DP  RH WIND       PRES   REMARKS
CAMPECHE         N/A    N/A N/A N/A MISG        N/A
CANCUN         PTCLDY    81  77  89 E12       29.87R
CHETUMAL         N/A    N/A N/A N/A MISG        N/A
CD. DEL CARMEN   N/A    N/A N/A N/A MISG        N/A
COZUMEL        PTCLDY    77  75  94 E14       29.84S
MERIDA         CLEAR     84  72  65 E21       29.78S
MINATITLAN       N/A    N/A N/A N/A MISG        N/A
TAPACHULA      CLEAR     82  73  74 CALM      29.80S
TUX. GUTIERREZ   N/A    N/A N/A N/A MISG        N/A

CENTRAL AMERICA

CITY           SKY/WX    TMP DP  RH WIND       PRES   REMARKS
MANAGUA        PTCLDY    84  75  74 W5        29.80S HX  92

CARIBBEAN

CITY           SKY/WX    TMP DP  RH WIND       PRES   REMARKS
ARUBA          PTCLDY    82  75  78 E20       29.77S
CURACAO        PTCLDY    82  75  78 E15       29.80F
KINGSTON       PTCLDY    82  73  74 N7        29.86S
NASSAU         PTCLDY    79  64  61 NE7       30.00F
SAN JUAN       PTCLDY    77  72  83 CALM      29.93F
SANTO DOMINGO  PTCLDY    70  70 100 NE5       29.92S
ST. CROIX      MOCLDY    73  72  94 N5        29.95F
ST. THOMAS     MOCLDY    79  72  78 NE3       29.94F

$$





USA.gov is the U.S. government's official web portal to all federal, state and local government web resources and services.